Regional Weather Roundup
Issued by NWS

Home | Current Version | Previous Version | Text Only | Print | Product List | Glossary Off
Versions: 1 2 3 4 5 6 7 8 9 10 11 12 13 14 15 16 17 18 19 20 21 22 23 24 25 26 27 28 29 30 31 32 33 34 35 36 37 38 39 40 41 42 43 44 45 46 47 48 49 50

000
ASUS43 KMPX 251401
RWRMN
WEATHER ROUNDUP FOR MINNESOTA
NATIONAL WEATHER SERVICE TWIN CITIES/CHANHASSEN MN
900 AM CDT WED MAY 25 2016


NOTE: "FAIR" INDICATES FEW OR NO CLOUDS BELOW 12,000 FEET WITH NO
SIGNIFICANT WEATHER AND/OR OBSTRUCTIONS TO VISIBILITY. N/A MEANS
CURRENT SKY AND/OR WEATHER CONDITIONS ARE NOT AVAILABLE.

MNZ060>063-068>070-251500-
   Twin Cities Metro

CITY           SKY/WX    TMP DP  RH WIND       PRES   REMARKS
TWIN CITIES    CLOUDY    71  59  65 SE10      29.89S
ST PAUL        CLOUDY    72  61  68 SE8       29.90F
CRYSTAL        CLOUDY    72  58  61 E8        29.87F
BLAINE         CLOUDY    70  61  73 E7        29.90S
EDEN PRAIRIE   CLOUDY    71  60  68 E14       29.87F
SOUTH ST PAUL  CLOUDY    72  59  63 SE10      29.90S
LAKE ELMO      FAIR      72  61  68 SE9       29.92S
$$
MNZ001>005-007-008-013>017-022>024-027-028-251500-
   Northwest Minnesota

CITY           SKY/WX    TMP DP  RH WIND       PRES   REMARKS
BEMIDJI        CLOUDY    58  55  91 E8        29.92S
HALLOCK        CLOUDY    66  55  68 E10       29.85S
ROSEAU         PTSUNNY   64  55  72 E8        29.91R
WARROAD        CLOUDY    59  55  88 E6        29.93R
THIEF RVR FALL CLOUDY    64  52  63 E14       29.87F
CROOKSTON      CLOUDY    64  55  72 SE13G18   29.83F
FOSSTON        CLOUDY    61  55  82 E12G17    29.87S
DETROIT LAKES  CLOUDY    61  55  82 SE13      29.86F
MOORHEAD       CLOUDY    64  55  72 SE12G17   29.80S
PARK RAPIDS    CLOUDY    61  55  81 E10       29.89F
MAHNOMEN       PTSUNNY   62  56  79 SE15      29.85S
$$
MNZ006-009>011-018-025>026-251500-
   North Central Minnesota

CITY           SKY/WX    TMP DP  RH WIND       PRES   REMARKS
BAUDETTE       MOSUNNY   57  52  83 E12       29.95R
FLAG ISLAND    CLOUDY    61  54  77 NE6       29.92R
WASKISH        CLOUDY    59  57  94 E8        29.93S
BIG FORK       CLOUDY    61  54  77 E6        29.96F
LONGVILLE      CLOUDY    57  55  94 SE6       29.94S
CRANE LAKE     CLOUDY    55  52  88 CALM      30.03S
ORR            CLOUDY    57  50  77 SE6       29.98R
COOK           CLOUDY    57  52  82 E5        30.01R
WALKER         CLOUDY    58  55  91 E6        29.93R
$$
MNZ012-019>021-037-251500-
   Northeast Minnesota

CITY           SKY/WX    TMP DP  RH WIND       PRES   REMARKS
ELY            CLOUDY    59  50  72 E8        30.02S HAZE
HIBBING        CLOUDY    56  51  84 E10       29.99S
EVELETH        CLOUDY    57  52  82 E6        30.02R
DULUTH HARBOR  FOG       46  45  93 NE18      30.05R VSB 3/4
TWO HARBORS    HAZE      54  48  82 NE8       30.03R VSB 1
SILVER BAY     FOG       50  48  93 NE10      30.05R VSB 1/2
GRAND MARAIS     N/A     44  42  93 NE9       30.10R
G MARAIS ARPRT CLOUDY    54  50  87 SE5       30.09R
$$
MNZ029>031-032-039>041-046>048-054>057-064-251500-
   West Central Minnesota

CITY           SKY/WX    TMP DP  RH WIND       PRES   REMARKS
FERGUS FALLS   CLOUDY    64  55  72 E7        29.78F
WHEATON        CLOUDY    68  61  77 SE17G26   29.79S
MORRIS         LGT RAIN  64  61  88 SE21G29   29.81S
ALEXANDRIA     CLOUDY    63  56  78 SE14      29.86F
ELBOW LAKE     CLOUDY    65  58  78 SE14      29.82R
WADENA         CLOUDY    57  55  94 E8        29.87F
GLENWOOD       CLOUDY    63  57  82 SE15G21   29.88R
APPLETON       DRIZZLE   64  61  88 E15       29.76F
BENSON         CLOUDY    63  59  88 SE8       29.81F
ORTONVILLE     CLOUDY    63  57  82 E16       29.73F
MADISON        DRIZZLE   64  61  88 SE16G23   29.76R
WILLMAR        RAIN      63  61  94 SW5       29.88R
$$
MNZ033>034-036-042>043-049>051-058-059-251500-
   Central Minnesota

CITY           SKY/WX    TMP DP  RH WIND       PRES   REMARKS
ST CLOUD       CLOUDY    64  58  80 E10       29.88F
SAUK CENTRE    FAIR      61  57  87 E12       29.86F
PAYNESVILLE    CLOUDY    64  58  82 SE6       29.89R
AITKIN         CLOUDY    57  52  82 E7        29.94S
PINE RIVER     CLOUDY    57  55  94 E8        29.96S
BRAINERD       CLOUDY    58  55  90 E8        29.92F
STAPLES        CLOUDY    57  55  94 E7        29.89S
LONG PRAIRIE   FAIR      61  55  82 E10       29.89S
LITTLE FALLS   CLOUDY    63  55  77 E8        29.89S
LITCHFIELD     CLOUDY    64  63  94 S3        29.89R
BUFFALO        PTSUNNY   66  58  74 E7        29.88F
MAPLE LAKE     CLOUDY    66  61  82 E9        29.88F
HUTCHINSON     LGT RAIN  65  62  89 S10G18    29.92R
$$
MNZ037-044-045-052-053-251500-
   East Central Minnesota

CITY           SKY/WX    TMP DP  RH WIND       PRES   REMARKS
PRINCETON        N/A     66  61  82 E9        29.91F
MORA           CLOUDY    55  54  94 E6        29.96S
CAMBRIDGE      CLOUDY    66  57  72 NE6       29.90F
RUSH CITY      CLOUDY    61  59  94 NE6       29.93F
MOOSE LAKE     CLOUDY    50  48  93 NE9       29.98S FOG
HINCKLEY       CLOUDY    55  54  94 NE6       29.96F
CLOQUET        FOG       48  46  93 E14G20    30.01S VSB 1/2
MCGREGOR       CLOUDY    54  52  94 E12       29.98S
$$
MNZ071>073-080-081-089-090-097-098-251500-
   Southwest Minnesota

CITY           SKY/WX    TMP DP  RH WIND       PRES   REMARKS
MONTEVIDEO     CLOUDY    64  63  94 S15       29.80F
GRANITE FALLS  LGT RAIN  66  61  81 E13G20    29.82F
CANBY          CLOUDY    66  63  90 E15       29.78S
MARSHALL       CLOUDY    64  63  94 SE10      29.81S
REDWOOD FALLS  LGT RAIN  63  60  90 E10       29.84F
OLIVIA         RAIN      59  55  88 S5        29.86F
PIPESTONE      CLOUDY    64  63  94 S13G18    29.81S
WINDOM         CLOUDY    66  63  88 SE9       29.85F
JACKSON        CLOUDY    66  61  82 CALM      29.87F
TRACY          CLOUDY    64  63  94 SE9       29.82F
SLAYTON        CLOUDY    64  63  94 SE17      29.82F
$$
MNZ065>067-074>077-082>085-091>093-251500-
   South Central Minnesota

CITY           SKY/WX    TMP DP  RH WIND       PRES   REMARKS
MANKATO        CLOUDY    66  61  82 S13G23    29.90R
NEW ULM        HVY RAIN  63  63 100 CALM      29.89F
ST JAMES       CLOUDY    63  59  88 SE8       29.89S
FAIRMONT       CLOUDY    64  57  77 S10       29.88F
GLENCOE        CLOUDY    66  63  88 SE6       29.89R
FARIBAULT      CLOUDY    70  63  78 SE13      29.91R
OWATONNA       CLOUDY    66  59  77 S9G17     29.92S
WASECA         RAIN      64  61  88 SE6       29.92S
ALBERT LEA     CLOUDY    64  64 100 CALM      29.90F FOG
$$
MNZ078>079-086>088-094>096-251500-
   Southeast Minnesota

CITY           SKY/WX    TMP DP  RH WIND       PRES   REMARKS
ROCHESTER      LGT RAIN  67  64  90 S12       29.94S
RED WING       CLOUDY   N/A N/A N/A SE10      29.91S
STANTON        CLOUDY    70  60  70 SE12      29.89F
DODGE CENTER   TSTM      66  61  82 SW17      29.94R
WINONA         CLOUDY    70  59  68 SE7       29.94S
AUSTIN         CLOUDY    66  63  88 SE3       29.91F
PRESTON        LGT RAIN  65  62  89 S6        29.95F
$$
ABBREVIATIONS USED IN REMARKS
   TC - TEMPERATURES IN CELSIUS
  WCI - WIND CHILL INDEX
   HX - HEAT INDEX
  VSB - VISIBILITY
$$




USA.gov is the U.S. government's official web portal to all federal, state and local government web resources and services.